GFSCGP_500_rhum_009.txt.gz
RH
2 3 3 8 19 60 81 85 77 94 93 92 69 38 59 68 18 2 5 6 4 6 5 6 6 6 6 7 8 9 10 14 18 28 15 19 20 9 10 8 9 12 8 8
2 2 3 12 51 79 88 96 82 73 77 84 82 83 58 50 38 11 38 30 19 4 5 5 6 6 7 8 9 10 11 12 12 11 9 9 10 11 11 11 11 10 8 8
2 2 4 9 73 76 69 71 60 65 72 71 91 85 55 40 80 61 65 59 53 14 4 6 6 7 8 8 9 9 9 10 10 10 10 9 7 7 10 12 13 13 13 12
2 2 4 15 51 60 61 57 57 53 72 79 65 67 66 80 76 78 67 54 59 26 6 5 7 8 7 8 8 9 9 10 10 11 10 9 8 7 7 8 10 12 13 14
2 3 4 23 51 49 50 57 52 52 63 84 60 66 60 73 68 72 93 68 59 44 10 5 7 9 12 9 8 8 8 9 9 9 9 10 9 8 8 7 7 7 9 11
3 4 5 15 43 48 48 46 47 48 49 47 47 51 54 55 69 77 92 64 75 76 11 5 6 8 10 9 8 9 9 9 9 8 7 7 9 10 8 8 8 8 7 9
4 5 16 40 48 48 51 45 52 57 48 23 46 46 56 60 70 82 78 54 65 55 53 21 10 5 8 12 12 13 13 8 7 6 7 5 6 10 9 8 8 8 8 7
4 8 10 26 32 27 35 45 56 52 51 67 68 68 65 68 77 77 46 52 53 41 31 79 41 39 10 13 10 20 11 12 6 5 6 5 8 10 9 9 9 10 8 7
9 8 26 43 39 36 43 51 44 66 79 85 60 49 59 61 60 64 57 54 51 38 24 87 51 45 10 5 6 16 10 6 6 5 6 8 9 9 9 9 10 10 8 8
15 31 32 49 52 47 51 53 50 67 66 67 53 62 63 63 61 62 63 61 55 50 36 36 68 30 35 7 8 8 9 8 9 9 9 9 10 10 10 11 10 9 9 10
35 44 53 55 56 44 52 53 53 55 60 55 51 57 65 66 86 73 67 61 61 52 40 17 20 68 25 26 10 15 19 33 31 20 10 11 10 10 15 12 9 10 11 10
25 47 56 56 55 52 42 50 55 67 56 55 53 70 86 78 70 70 66 62 56 54 64 51 36 20 15 9 13 15 16 28 40 16 11 11 10 9 10 9 9 10 10 15
39 53 54 64 59 58 56 47 56 57 52 56 58 64 80 85 79 78 78 77 77 64 78 54 24 23 10 6 14 14 14 18 33 31 12 10 10 10 10 10 12 10 14 20
52 53 54 56 62 64 58 51 53 56 51 40 55 66 80 84 78 84 78 88 68 59 71 63 33 25 15 10 11 13 14 20 36 33 22 11 10 11 12 14 12 11 17 23
51 53 52 54 59 65 60 65 56 55 56 58 58 68 71 80 81 80 82 87 92 83 81 68 56 17 12 11 7 12 13 26 42 55 27 13 11 13 15 15 12 14 18 24
44 48 51 52 53 70 80 60 66 81 56 46 50 54 49 67 80 78 63 75 62 73 80 78 63 33 8 6 5 9 16 21 45 49 37 40 13 16 18 16 14 16 19 24
51 52 52 54 49 50 55 62 59 55 54 62 68 59 55 65 65 72 53 42 72 61 47 42 54 46 9 7 7 8 36 87 70 54 63 46 17 20 20 18 18 19 24 26
43 45 50 51 56 49 45 54 52 52 50 56 72 74 72 62 66 66 54 57 47 47 67 55 53 29 9 7 8 17 24 32 58 53 73 54 22 24 21 20 20 22 25 26
72 48 48 52 52 44 40 35 35 48 59 55 52 64 78 55 64 71 81 78 67 68 70 64 24 9 8 8 11 14 18 36 56 53 74 29 31 28 25 26 24 26 28 29
75 66 56 49 49 50 44 44 58 65 76 73 72 70 77 80 78 82 87 68 85 83 55 23 7 8 8 10 13 22 39 60 64 80 53 36 29 27 28 28 28 32 35 38
88 94 79 84 70 56 63 88 94 81 57 84 81 87 90 92 89 84 72 75 76 70 47 21 10 13 17 13 16 38 60 75 82 71 39 34 29 31 34 33 36 45 36 52
96 98 71 74 88 85 90 67 72 79 60 80 91 74 88 79 96 88 66 54 58 57 53 9 6 17 24 28 34 42 61 79 89 59 53 40 37 37 40 55 57 45 47 59
78 94 92 96 95 81 96 79 42 25 46 52 61 59 60 76 90 94 91 64 52 37 22 11 5 13 18 22 41 48 33 44 83 96 48 33 38 44 69 74 62 78 69 62
77 88 96 96 94 90 95 68 86 66 45 33 60 74 91 89 68 69 70 68 55 51 25 10 12 28 66 91 81 67 59 86 98 96 91 91 94 96 91 88 83 61 56 23
66 76 40 32 48 50 66 60 76 82 93 94 95 96 77 76 87 88 86 73 58 38 24 26 25 36 45 80 85 91 80 77 81 92 95 96 92 95 86 67 30 17 12 11
72 84 77 66 72 75 89 95 65 59 81 97 95 94 93 99 94 85 50 29 18 30 36 38 42 42 44 60 84 96 95 88 99 76 98 98 85 57 43 30 13 12 20 32

GFSCGP_500_rhum_015.txt.gz
RH
6 8 7 20 29 20 33 19 62 77 82 76 73 75 71 49 34 15 5 5 5 6 5 4 3 3 4 6 7 8 11 14 14 10 9 9 8 8 9 10 12 12 13 13
4 3 10 27 32 33 31 20 79 96 94 95 98 78 80 70 52 51 43 35 38 42 9 5 4 4 5 7 8 9 10 11 11 10 10 10 8 7 7 7 8 8 8 9
2 6 14 13 18 42 30 37 84 78 94 98 100 76 77 71 56 71 69 66 62 47 38 6 6 5 4 6 7 8 9 10 10 10 10 10 10 9 8 8 8 8 8 8
3 9 14 10 16 34 43 58 82 92 84 65 63 68 83 79 57 53 72 57 78 62 59 35 5 7 6 6 6 8 8 9 9 9 9 9 9 8 9 10 10 10 8 8
3 3 8 4 8 39 55 92 94 84 73 66 60 60 48 67 50 46 46 65 74 65 55 69 20 6 8 8 9 10 9 9 9 8 9 9 8 8 7 6 6 8 9 8
3 4 6 3 8 61 76 92 95 74 61 57 56 57 49 39 40 41 53 63 69 73 43 44 39 52 29 12 7 8 8 8 8 8 9 9 7 6 6 6 7 8 9 9
3 3 4 5 8 58 71 86 79 66 57 50 53 57 33 42 60 55 48 56 59 73 40 38 29 47 37 23 29 8 10 17 11 7 6 8 6 6 7 8 8 9 10 10
3 3 4 4 4 32 60 86 70 60 53 53 55 53 24 47 54 70 66 60 53 56 61 54 40 55 64 66 49 50 34 10 8 8 8 8 8 9 11 10 10 11 10 8
3 3 4 6 5 17 58 74 61 58 55 54 52 53 40 49 60 66 64 67 52 61 63 47 40 38 95 87 75 46 26 18 13 10 11 11 50 69 57 12 12 12 10 10
4 4 4 5 19 22 58 60 59 56 48 50 38 37 44 52 61 62 66 60 58 67 62 45 49 34 35 58 23 29 40 25 16 13 12 12 34 80 58 31 12 11 10 10
7 4 4 5 5 15 57 52 53 48 41 36 25 25 37 54 48 57 74 71 54 59 46 47 55 40 36 30 25 22 14 11 11 11 12 13 60 71 57 41 35 14 10 12
26 6 8 5 6 9 42 36 42 46 34 36 26 33 58 61 60 69 66 66 59 57 58 52 59 66 50 35 35 30 39 32 15 9 11 14 50 78 67 53 44 33 15 11
39 18 8 18 10 13 18 28 29 34 33 29 35 36 50 60 61 58 57 52 57 53 51 53 57 66 63 45 36 37 34 31 26 15 9 15 55 70 76 66 55 55 25 22
62 32 10 9 10 22 26 26 42 47 42 40 42 44 45 37 56 56 46 38 39 37 53 52 54 52 62 59 56 47 37 37 31 12 7 7 28 68 71 63 71 85 61 59
56 46 26 7 23 33 28 38 52 51 49 47 43 48 48 54 59 57 52 50 36 29 32 37 55 53 53 55 57 47 48 50 36 28 8 12 29 67 98 97 96 95 74 72
52 48 48 15 31 40 41 49 55 53 56 60 57 54 54 51 57 58 53 56 40 33 34 45 53 55 50 64 57 51 40 34 27 28 40 77 97 95 94 93 92 92 70 91
47 48 50 42 33 45 47 58 59 56 55 54 59 58 54 61 58 56 55 58 53 60 49 56 56 72 77 76 62 46 48 40 29 26 44 66 90 98 75 67 65 89 79 86
47 45 47 46 37 46 52 64 59 58 57 56 73 66 58 61 62 62 60 57 59 66 66 60 66 74 83 78 70 57 70 61 60 45 28 59 78 78 62 66 75 90 84 98
46 43 46 49 41 45 54 70 63 64 62 60 59 65 62 64 68 67 63 72 76 72 72 67 66 68 71 74 72 76 74 66 62 58 34 52 64 69 60 71 76 67 90 95
60 49 46 48 50 54 65 84 69 70 64 72 60 62 69 71 64 63 64 72 77 74 82 86 74 77 80 84 94 93 75 64 65 60 60 65 73 72 83 100 96 93 86 85
84 59 53 46 51 54 61 86 82 80 73 48 50 56 63 66 62 60 64 70 70 78 76 75 84 93 90 87 95 89 85 76 47 42 42 60 72 67 84 89 94 96 95 96
68 66 65 54 56 71 62 61 76 78 85 76 61 60 57 54 56 54 50 47 67 76 78 87 95 93 92 97 94 58 59 53 48 43 31 40 51 99 90 86 83 97 96 96
89 67 81 72 56 59 67 66 64 67 68 62 59 56 56 55 51 52 72 70 82 94 93 95 74 92 96 86 66 53 53 40 32 52 74 76 65 74 74 88 85 95 94 91
80 81 95 97 72 68 68 68 67 61 58 62 60 59 59 58 66 68 67 81 74 81 81 80 80 85 89 68 60 58 60 37 43 76 69 67 61 67 88 67 50 76 98 94
61 96 96 98 94 90 74 74 69 66 68 68 72 71 74 76 85 95 77 78 83 95 97 86 86 81 78 80 80 64 50 34 50 59 46 51 68 60 87 56 43 83 83 82
74 80 95 94 95 93 96 93 90 90 83 88 80 84 78 84 90 96 94 85 88 69 87 95 86 70 69 58 48 33 31 34 34 34 46 57 57 65 45 41 64 74 89 64

GFSCGP_500_rhum_021.txt.gz
RH
3 6 4 8 19 35 52 40 57 86 64 60 60 52 43 32 17 6 5 5 5 5 5 5 4 4 4 4 4 5 9 13 14 14 10 9 9 8 8 8 12 9 12 8
3 2 10 37 29 30 39 56 69 72 71 60 58 52 54 59 37 14 5 9 17 25 36 6 5 4 4 4 4 5 8 9 11 10 10 10 10 9 8 8 8 8 9 9
3 5 21 22 13 20 28 39 62 67 74 70 63 63 70 70 62 60 62 56 56 50 35 37 9 5 5 4 5 6 7 9 10 9 9 9 9 8 8 8 8 7 7 7
3 5 17 18 15 12 18 25 51 71 61 56 60 67 69 71 63 64 67 67 62 55 63 53 48 7 5 5 5 6 6 6 7 8 8 8 8 8 8 7 6 6 6 6
3 3 8 22 13 16 11 23 36 68 74 59 58 67 74 68 57 63 61 56 67 73 67 61 51 52 15 6 6 6 6 6 6 7 7 8 8 8 8 7 9 7 5 6
3 7 10 14 42 41 36 28 28 42 70 76 47 52 58 48 54 59 56 52 60 64 58 48 34 38 55 8 8 17 17 12 8 8 8 10 8 5 6 6 6 6 6 8
2 5 12 14 69 64 48 63 58 41 55 39 56 43 26 50 52 54 52 54 61 69 55 59 57 35 33 36 40 39 35 29 24 9 9 7 7 7 7 10 33 50 39 44
2 4 7 25 43 50 28 44 58 55 39 23 30 16 38 54 51 53 55 61 57 55 55 60 62 52 35 30 27 35 36 46 36 17 15 20 12 11 11 12 20 32 93 92
3 3 20 46 50 48 64 51 62 86 83 58 41 18 34 49 53 57 56 65 68 53 58 64 70 62 47 29 31 35 48 50 39 25 9 8 8 8 9 34 33 49 53 75
5 4 19 47 71 72 53 61 71 63 77 88 66 44 16 38 40 50 52 60 66 62 64 66 65 66 52 25 24 30 54 34 15 13 20 23 23 19 36 74 13 77 71 69
8 5 6 46 55 72 73 65 82 75 56 55 77 43 31 27 32 37 40 57 57 56 61 55 65 61 56 52 55 21 26 22 37 37 35 43 39 37 43 56 72 60 38 70
12 13 6 5 36 57 72 71 59 57 42 41 55 57 40 42 41 36 28 39 43 45 52 51 53 46 46 54 64 30 40 54 52 49 46 54 49 70 52 93 90 90 88 64
26 27 15 6 6 18 45 51 58 76 72 54 45 35 44 58 53 40 45 40 38 45 50 54 54 56 48 57 65 65 54 64 61 65 67 62 56 76 54 58 87 100 95 96
29 29 35 15 4 5 7 22 40 61 74 59 29 28 25 49 56 41 44 58 63 54 57 50 60 59 51 52 53 66 72 68 65 76 76 73 68 60 56 56 64 97 96 88
32 18 23 19 16 13 8 6 9 20 23 34 27 13 9 32 50 58 56 51 60 58 57 39 48 41 40 54 56 45 49 65 71 71 76 63 66 68 68 72 63 82 98 97
44 31 31 19 18 22 18 8 7 5 6 8 11 9 13 20 34 46 46 47 53 52 47 61 45 39 39 36 37 44 48 56 55 53 52 54 67 77 80 84 75 83 79 95
68 53 61 42 53 41 32 24 10 7 4 4 6 5 11 10 17 36 43 47 52 60 59 56 46 46 51 48 39 42 36 48 63 75 78 69 79 85 96 94 88 77 62 68
82 75 82 62 74 87 19 22 17 8 6 5 5 6 8 10 21 42 53 55 56 60 62 57 56 55 58 49 48 46 61 60 61 62 62 56 68 76 84 82 56 64 60 66
71 77 88 81 79 64 41 29 24 14 8 6 5 5 8 11 36 50 56 56 57 56 60 64 61 59 59 55 49 59 62 56 48 46 62 78 88 87 79 62 45 41 43 68
69 72 85 82 94 70 38 36 33 24 17 11 7 8 11 17 46 55 56 55 54 55 61 63 65 60 60 51 60 61 48 42 50 54 53 88 94 93 95 54 44 37 62 76
41 63 80 83 91 85 47 46 48 41 24 19 15 13 37 47 55 56 57 55 56 64 65 64 61 64 69 71 64 51 54 58 53 61 96 95 79 67 69 58 57 48 46 62
26 34 45 79 96 86 56 52 55 45 35 33 28 29 52 54 62 62 59 58 61 61 63 67 69 75 91 82 57 69 60 58 89 98 98 88 64 60 60 60 60 61 37 45
29 24 37 68 93 90 63 52 52 48 48 44 45 46 61 62 68 78 71 62 68 70 72 78 84 81 66 59 65 71 86 100 92 82 73 73 62 78 71 74 70 56 44 36
37 26 36 64 88 84 66 69 59 52 50 48 48 48 70 60 71 75 70 69 72 74 76 78 75 61 61 67 82 99 97 56 48 70 97 75 53 76 80 57 42 40 33 44
52 40 40 44 91 97 89 75 62 59 55 52 54 61 63 60 65 76 87 88 76 72 68 65 65 62 77 95 88 79 83 82 87 85 53 57 60 72 43 32 34 41 44 52
78 66 59 56 91 95 97 95 80 67 66 60 61 58 62 67 68 75 78 82 72 69 69 66 70 69 96 94 54 92 92 76 71 72 60 62 48 37 36 37 44 57 46 37

GFSCGP_500_rhum_024.txt.gz
RH
3 9 10 21 36 59 97 66 82 82 47 37 23 19 20 9 3 4 4 4 5 4 4 4 3 3 3 4 4 4 5 8 14 13 11 9 9 26 18 14 16 8 9 8
2 3 17 35 48 58 69 79 80 86 60 59 52 34 30 21 11 4 3 4 5 8 12 4 4 3 3 4 4 4 4 6 9 9 8 8 8 8 8 8 8 10 8 8
2 5 16 23 30 52 59 54 83 93 67 56 59 42 39 32 19 7 3 5 13 32 30 33 16 4 4 4 4 4 5 6 6 8 8 8 8 8 8 8 8 8 7 7
2 3 7 12 20 30 41 45 63 96 89 79 55 75 73 52 30 22 32 52 51 50 51 54 46 28 6 4 4 5 5 6 6 7 8 8 8 7 7 7 7 7 6 6
2 2 3 8 8 18 22 60 58 90 93 100 97 67 90 61 39 44 56 63 59 56 59 56 48 46 51 10 5 5 5 6 6 6 6 6 6 6 6 7 6 6 6 5
4 2 2 5 14 18 24 64 50 83 96 97 94 89 82 83 45 57 60 58 58 64 68 63 55 44 35 50 19 6 7 7 8 7 6 5 5 7 6 6 6 8 26 39
4 3 2 3 10 43 36 45 64 82 92 90 94 87 31 85 66 67 60 54 58 61 56 50 42 38 39 43 26 8 10 24 31 30 22 6 7 7 7 7 7 7 8 10
5 4 3 2 5 15 23 20 73 80 80 87 93 61 17 50 54 69 58 52 55 60 54 50 44 50 48 34 30 31 31 35 40 39 31 15 22 19 8 6 6 6 6 28
5 4 4 3 5 16 20 40 49 73 77 76 77 59 18 38 63 53 57 52 54 56 54 56 47 42 56 42 28 27 25 30 33 49 33 22 7 8 12 16 16 32 56 29
10 8 6 4 3 14 29 31 67 70 75 76 73 75 44 43 57 50 55 53 61 63 63 64 60 46 52 52 37 22 22 30 49 36 16 20 26 32 35 45 49 42 62 67
11 9 16 10 4 3 29 50 59 78 75 70 73 64 41 34 50 52 57 57 55 62 63 65 67 60 58 41 44 54 20 28 32 31 36 34 36 44 42 80 93 69 55 76
13 58 21 10 5 4 14 29 49 67 70 77 73 66 72 53 43 46 43 65 54 58 61 62 61 54 52 42 45 53 33 15 28 42 44 45 47 54 54 39 63 66 86 69
23 37 63 31 29 17 9 22 42 80 59 72 75 68 69 51 18 30 36 40 35 32 51 59 52 51 55 51 48 52 58 46 54 52 58 58 58 64 64 49 48 64 69 74
19 31 25 46 14 19 7 9 37 64 74 71 72 82 76 70 19 20 33 37 41 43 46 52 47 51 56 60 62 51 49 55 60 67 65 60 65 73 74 50 49 60 75 70
33 21 49 23 69 73 66 28 16 43 46 61 56 70 80 71 25 10 27 42 53 45 53 56 65 60 54 54 49 48 46 45 48 52 60 57 54 57 58 52 51 61 80 76
37 29 27 25 20 62 78 72 64 37 23 35 49 32 61 75 23 15 10 31 46 52 54 57 62 60 51 48 47 48 53 56 46 49 38 41 47 32 31 53 57 67 74 69
62 40 40 30 68 71 85 76 72 59 24 5 7 9 16 20 13 11 8 13 26 51 48 53 57 63 56 55 50 48 44 35 35 38 33 44 36 36 44 60 72 86 79 72
51 59 56 45 94 98 68 82 72 63 60 16 6 5 5 4 4 6 6 10 18 46 52 52 58 57 60 58 54 46 42 38 32 32 38 44 49 49 58 68 85 78 67 74
50 60 86 94 98 89 83 82 47 46 31 22 14 14 5 6 4 4 4 4 21 40 53 57 59 62 60 54 59 47 41 39 42 49 51 65 66 66 75 96 95 67 62 66
51 56 82 100 100 98 98 73 48 61 47 30 24 18 12 6 5 4 4 7 31 44 54 55 59 62 62 62 60 60 59 58 57 54 61 62 67 74 75 86 86 70 65 54
47 45 56 70 100 100 82 72 59 70 61 47 38 24 18 9 5 6 5 15 43 54 56 56 57 58 61 62 64 63 61 66 72 60 58 65 62 60 79 85 70 83 63 61
49 44 51 95 100 100 69 35 55 66 50 51 39 28 19 14 9 8 6 35 50 54 55 55 54 60 63 66 66 65 68 81 79 58 56 56 55 80 77 64 62 75 81 77
70 71 99 70 98 41 54 41 49 86 55 55 52 39 33 25 26 48 28 43 54 56 56 55 59 64 65 67 68 86 94 79 66 60 58 50 67 75 87 99 85 65 78 77
50 52 46 39 36 38 40 45 45 91 60 55 52 51 40 35 31 52 56 54 58 59 58 61 65 66 67 73 80 84 72 63 59 66 64 76 97 83 81 62 62 71 80 56
55 54 49 42 33 28 24 23 34 81 73 58 54 53 51 48 48 53 59 68 65 63 64 66 72 71 73 75 75 72 64 62 63 69 83 87 79 84 81 65 51 56 49 43
72 60 52 42 35 26 30 57 46 70 89 69 61 57 56 54 53 72 78 77 77 70 78 86 79 79 76 74 66 65 66 76 78 96 92 54 68 47 39 51 33 31 36 40

GFSCGP_500_rhum_030.txt.gz
RH
2 2 2 15 21 36 68 81 72 97 95 95 90 32 96 10 6 3 2 2 2 2 2 2 3 3 3 3 4 7 10 12 12 11 12 9 11 15 28 14 11 12 12 16
2 2 2 6 20 30 38 91 88 90 82 86 96 71 32 60 20 4 3 2 2 2 2 2 2 2 2 2 2 3 3 4 4 7 8 6 8 7 6 6 6 6 7 6
2 2 2 2 7 21 35 75 86 93 96 82 100 96 93 88 35 5 3 3 3 3 2 2 2 2 2 2 2 3 3 3 3 4 6 6 9 12 6 6 6 7 6 6
2 2 2 2 3 8 23 34 84 85 98 77 78 92 72 92 44 16 4 2 3 3 3 4 5 4 3 3 3 3 3 3 3 4 7 6 6 10 6 6 5 6 6 5
4 3 2 2 2 4 10 34 76 82 97 98 82 87 93 86 98 83 11 5 3 3 3 3 6 12 19 20 19 8 3 4 4 4 4 5 7 5 5 5 4 6 5 6
5 4 3 3 3 4 11 47 64 74 79 92 97 70 69 83 60 94 94 42 9 6 7 8 11 16 27 34 35 35 24 6 4 4 4 5 13 25 26 8 13 8 6 6
7 6 3 3 9 8 21 60 65 63 65 72 84 93 70 98 94 75 93 86 60 25 22 29 28 29 30 36 37 27 34 40 17 5 5 13 33 34 20 10 9 5 18 17
8 7 5 4 2 19 10 46 53 66 60 62 52 72 80 68 68 92 76 76 96 87 53 52 46 46 40 40 27 21 28 32 27 18 12 23 37 33 21 14 12 29 33 27
10 9 9 8 11 11 16 41 33 57 61 62 62 63 55 64 87 96 76 96 78 89 93 60 48 47 45 41 38 32 25 21 21 18 18 21 26 36 23 15 29 40 40 38
14 14 19 16 12 5 6 17 24 41 58 56 54 52 63 72 70 96 84 89 74 65 88 93 43 40 41 46 40 46 32 28 38 25 20 18 28 37 14 27 30 37 36 37
19 13 29 52 14 11 16 10 21 39 46 53 56 56 53 64 76 76 78 82 90 89 70 68 39 43 43 43 36 40 42 36 39 36 19 19 32 20 22 28 39 33 38 33
28 18 14 37 54 36 17 8 7 23 36 45 46 47 57 64 69 74 66 77 67 29 50 77 70 57 66 45 42 40 42 34 33 38 32 23 17 19 32 40 34 39 35 30
64 37 23 17 39 56 51 38 36 17 28 44 46 44 50 66 89 84 95 80 46 44 84 85 94 71 64 36 47 45 52 40 36 44 42 35 25 26 42 30 31 28 30 29
69 64 37 23 23 50 57 41 43 42 31 25 48 48 40 59 71 85 94 84 85 59 80 82 77 83 69 29 52 61 54 44 42 46 38 35 39 49 38 32 31 32 37 42
69 62 54 50 48 62 60 59 54 49 28 33 13 46 44 57 77 76 95 84 78 60 73 76 68 74 77 60 33 59 56 44 46 44 34 30 47 48 43 36 33 39 42 57
76 58 59 43 62 66 71 65 56 56 52 19 31 34 52 53 64 88 78 93 79 71 54 48 56 49 45 40 35 55 61 54 50 49 43 37 47 51 48 46 32 40 49 42
82 64 63 49 44 72 71 46 67 55 50 46 40 27 37 49 64 69 91 94 95 95 59 57 67 50 40 43 46 57 63 61 52 48 47 39 30 36 46 42 54 52 53 48
96 91 64 51 52 74 29 55 72 72 56 46 42 37 41 42 61 70 72 82 86 95 86 62 48 45 36 60 56 56 68 60 57 50 52 44 38 40 45 42 52 58 48 51
96 97 94 60 83 51 56 79 79 73 70 67 65 63 48 43 48 60 79 88 84 67 96 91 67 36 31 38 51 53 55 56 56 58 56 44 50 55 55 58 64 63 62 77
93 95 88 83 84 68 60 59 80 83 76 64 72 73 76 75 74 31 52 60 79 79 83 76 36 35 19 25 28 44 36 45 57 63 63 50 56 59 63 67 69 78 88 92
97 98 94 100 84 80 87 97 91 95 73 90 83 79 68 59 72 67 78 70 57 70 68 38 22 15 9 17 24 19 43 48 58 59 61 58 59 62 65 70 73 81 93 96
98 99 98 94 98 97 76 76 72 95 84 90 97 84 64 61 61 63 63 68 61 48 21 19 14 6 42 14 16 9 44 49 54 58 63 66 62 63 68 78 81 93 94 85
97 95 100 97 98 99 71 60 80 67 42 63 82 68 62 41 46 42 37 54 54 59 50 56 34 40 42 11 20 11 22 44 58 62 63 71 72 68 71 83 93 94 94 83
85 91 83 98 97 90 98 99 74 58 89 97 92 80 77 42 49 42 40 46 43 36 70 66 66 9 10 18 30 28 32 42 60 61 62 65 70 74 75 79 96 96 93 91
95 90 86 76 83 55 48 57 83 70 50 56 57 55 38 39 39 52 48 39 35 31 39 50 62 27 31 30 37 37 43 51 55 58 59 65 68 68 72 84 96 92 92 90
98 93 86 78 70 60 62 49 51 61 53 62 44 44 35 16 28 49 47 42 34 27 23 18 17 15 26 35 47 62 65 62 57 59 58 68 68 79 93 96 98 98 88 80

GFSCGP_500_rhum_033.txt.gz
RH
2 2 2 6 12 25 40 48 55 98 100 80 94 97 76 51 22 2 2 3 3 4 4 4 6 8 9 8 8 8 9 13 12 10 11 7 14 17 36 14 12 9 7 17
2 2 2 2 7 16 32 41 41 93 93 97 84 80 54 48 30 3 2 2 2 2 2 2 2 2 2 2 3 3 4 4 4 4 6 6 6 7 5 5 5 6 7 5
2 2 2 2 2 8 25 27 33 94 94 95 94 83 46 58 31 5 2 3 3 2 2 2 2 2 2 2 2 2 2 2 3 3 4 4 5 8 8 6 6 5 5 5
4 2 2 2 2 2 10 31 47 84 78 69 97 66 74 87 40 27 4 3 3 3 3 2 2 2 3 3 3 3 2 3 3 3 4 8 4 5 9 6 5 5 5 4
5 4 2 2 2 2 2 45 41 92 97 93 97 94 95 78 68 55 47 38 4 3 3 3 3 3 4 9 14 18 11 3 3 3 3 4 4 5 6 10 5 6 5 6
7 6 5 3 2 2 2 20 51 84 92 86 75 95 91 90 71 98 82 78 54 4 5 3 6 10 16 19 30 34 31 30 12 4 5 4 4 22 22 11 15 12 6 5
10 8 6 5 4 3 2 6 38 67 75 79 77 83 68 80 78 78 70 78 72 60 8 10 21 35 35 34 28 29 30 30 33 30 6 4 6 24 19 9 10 5 21 23
12 10 8 7 7 4 3 3 9 39 49 50 74 72 28 62 69 82 88 92 94 91 26 31 50 44 40 37 33 25 23 28 35 36 20 9 11 22 23 14 9 26 30 32
17 14 10 8 7 6 7 4 6 26 41 41 43 61 62 49 72 67 66 75 92 69 82 70 81 44 43 36 37 26 22 22 19 19 14 16 19 19 23 16 22 34 39 37
21 19 14 10 9 8 7 8 16 13 20 28 18 42 38 68 68 65 64 56 68 95 68 97 90 70 39 31 32 24 36 32 26 34 24 15 15 16 30 17 21 29 40 37
29 23 18 15 12 10 9 8 12 21 18 29 29 15 60 75 71 66 62 67 66 79 60 56 61 60 38 32 25 28 33 43 32 31 27 20 18 25 28 15 26 41 35 28
37 34 23 17 18 23 12 10 10 9 18 24 38 9 58 64 63 57 61 70 77 67 39 76 66 46 28 34 29 36 40 41 43 32 37 29 23 20 14 22 40 40 34 20
60 35 36 24 21 21 29 30 16 17 14 8 15 8 19 56 62 65 89 94 87 86 89 89 70 65 27 51 64 31 53 53 51 40 38 31 31 28 25 35 49 41 20 21
72 55 33 25 19 30 30 39 39 23 10 11 6 9 9 53 59 67 68 64 92 95 96 98 92 71 70 46 58 28 37 61 52 45 40 42 31 34 38 44 38 28 28 29
65 58 55 36 38 30 30 53 55 27 16 14 11 8 7 26 47 52 71 77 72 90 93 89 69 59 74 47 52 39 28 46 58 48 45 45 32 39 45 45 40 34 30 35
60 58 64 64 56 51 36 42 52 59 42 26 22 11 14 22 42 47 66 68 72 78 63 96 90 80 75 58 31 35 36 36 36 54 50 50 42 32 43 51 50 48 37 44
64 65 65 63 65 70 59 29 48 59 62 52 27 26 18 15 35 62 63 88 54 89 96 92 91 81 71 72 64 46 33 33 31 42 58 57 49 48 31 42 50 54 49 55
68 72 75 73 67 71 32 37 39 56 62 62 61 50 32 15 24 49 56 78 77 84 87 95 95 92 86 69 67 62 43 32 27 43 55 53 48 54 37 38 42 46 48 55
90 89 87 83 74 61 52 48 54 67 68 62 62 56 44 26 24 44 49 40 53 63 69 75 95 90 96 86 66 64 43 33 30 28 52 62 54 61 44 45 44 54 57 63
97 95 93 96 86 58 45 60 53 60 74 73 65 58 54 54 31 32 45 42 49 61 68 76 97 82 72 71 74 64 48 39 34 49 59 58 56 64 61 60 62 62 62 66
97 98 96 99 76 51 56 58 58 90 59 70 63 66 65 64 38 24 36 45 46 61 59 73 71 78 72 95 92 63 48 36 35 40 59 59 56 61 68 61 63 64 72 82
98 95 96 85 87 57 55 60 74 92 67 72 72 54 68 67 64 47 33 27 40 41 58 67 77 83 85 86 91 79 35 20 29 27 51 55 57 56 59 66 68 69 77 71
92 94 95 100 100 99 78 70 92 69 57 61 59 44 46 56 62 47 32 34 38 32 37 50 53 56 68 80 91 74 62 62 45 18 50 57 62 59 60 66 80 83 77 84
98 94 87 94 100 92 81 92 95 100 82 84 88 62 74 49 49 39 36 40 35 36 46 56 40 28 47 48 67 72 59 56 61 37 40 58 57 61 63 75 79 75 83 89
96 96 92 80 100 94 85 73 94 91 88 57 55 72 79 68 63 56 49 49 44 28 36 28 23 35 38 46 59 57 50 44 46 61 53 58 55 63 73 72 71 84 95 95
97 97 89 69 73 62 77 66 62 68 57 57 74 57 57 64 66 85 70 50 35 37 40 34 28 22 37 64 84 90 66 39 80 68 68 64 75 77 63 70 82 96 89 95

GFSCGP_500_rhum_036.txt.gz
RH
2 2 2 4 12 33 56 68 61 75 85 67 74 78 82 69 48 28 2 3 6 9 8 8 9 9 8 11 13 12 10 10 7 5 6 9 20 25 31 12 11 6 6 6
2 2 2 2 5 13 46 52 64 55 64 79 92 86 98 75 46 45 8 2 3 3 4 5 7 7 6 6 6 7 6 4 3 4 4 4 6 7 7 5 6 6 6 5
3 2 2 2 2 3 17 42 64 59 56 70 98 98 85 79 70 34 14 3 2 2 2 2 3 3 2 2 2 2 3 2 2 3 3 3 4 5 6 5 6 5 5 6
5 3 2 2 2 2 3 21 61 62 63 72 74 87 93 82 70 45 11 5 3 2 3 3 2 2 2 2 2 2 2 3 3 3 3 5 5 5 6 6 5 4 4 4
6 5 4 2 2 2 2 23 58 74 54 69 92 65 94 70 28 39 20 25 6 3 3 3 4 4 7 11 14 15 18 9 3 3 3 3 5 4 7 4 4 4 5 4
8 7 6 5 3 2 2 16 45 76 81 67 73 58 62 80 53 40 42 50 51 12 8 4 3 4 8 20 24 23 27 28 25 7 4 4 4 4 14 20 12 13 9 4
12 10 8 6 6 3 2 3 20 54 74 30 51 41 37 71 73 48 41 52 71 62 25 16 8 9 14 23 29 25 23 27 29 30 28 13 4 4 19 19 8 6 9 22
14 13 12 10 7 6 4 2 2 11 42 42 52 43 23 68 80 48 67 69 63 57 74 54 11 22 18 24 32 34 27 22 25 29 33 31 14 8 17 25 13 12 15 22
18 16 15 11 8 7 6 6 3 4 15 30 33 37 27 58 76 74 60 76 52 46 57 72 77 43 34 26 32 32 30 18 24 29 31 29 27 23 21 22 16 14 25 28
20 19 20 15 12 9 7 10 8 3 4 12 11 23 8 26 46 54 61 64 60 56 65 72 76 57 61 23 31 35 36 28 17 16 20 22 14 14 17 23 16 22 26 26
29 24 20 21 16 12 10 9 9 10 6 3 4 3 9 10 45 78 77 70 69 64 65 69 79 92 97 61 39 36 39 37 30 24 29 28 18 15 18 32 18 16 31 31
23 29 18 17 18 16 12 10 10 10 10 8 6 5 5 16 57 75 75 71 65 66 83 84 77 94 56 39 24 22 37 40 44 36 31 30 24 22 27 30 17 30 42 34
24 15 14 16 22 22 17 13 12 11 11 9 8 7 12 14 39 66 70 69 69 95 97 96 84 76 52 39 37 46 43 38 55 48 39 37 29 26 18 16 24 42 44 32
26 18 16 9 16 19 16 16 14 12 12 11 7 10 8 18 51 68 72 76 83 93 96 92 82 85 82 56 55 76 85 60 56 52 46 43 42 33 33 24 40 54 43 30
34 21 19 14 13 33 24 19 18 16 14 13 11 13 12 10 54 64 68 70 74 77 81 80 89 79 42 58 53 75 90 55 62 46 39 41 46 47 35 32 39 58 47 32
49 30 32 16 14 15 32 29 20 18 19 16 17 16 19 12 15 62 67 68 60 89 82 58 50 76 55 73 76 67 81 43 48 59 38 38 43 45 38 34 37 49 51 44
73 49 52 30 30 31 56 10 25 25 23 21 19 23 24 21 10 22 52 60 57 59 61 77 77 73 77 76 80 60 67 51 56 70 55 38 43 54 54 47 38 44 52 52
76 71 69 52 62 80 11 27 27 34 34 33 30 38 35 27 24 10 18 36 50 60 78 61 64 85 91 77 71 70 61 51 49 44 54 46 35 54 56 55 52 36 46 49
82 84 79 71 79 69 41 27 38 42 42 49 38 40 39 38 39 23 13 16 42 59 85 69 62 76 76 63 78 82 82 76 70 47 52 47 42 56 61 58 57 48 40 40
96 95 94 84 75 73 53 51 39 50 47 53 49 44 55 62 39 34 18 16 51 62 62 52 67 94 57 65 87 81 78 73 71 74 66 51 60 70 68 67 61 63 51 48
97 97 96 98 79 71 67 69 73 68 50 47 45 45 51 62 62 46 27 17 30 48 55 56 55 57 63 83 72 83 84 83 76 77 72 64 55 56 68 71 68 68 65 64
98 97 93 96 97 92 72 64 75 77 52 54 46 48 56 63 64 63 46 23 15 24 40 48 44 45 60 69 82 84 79 81 86 70 78 69 62 49 39 46 60 68 76 75
98 97 88 95 96 96 85 68 74 74 60 42 47 54 67 65 66 68 59 28 25 19 26 40 44 44 43 48 54 59 60 74 62 49 76 70 65 49 39 51 50 66 73 81
96 95 95 98 96 96 81 79 82 68 52 47 54 52 59 61 62 66 70 58 37 40 30 27 35 38 41 46 46 48 54 62 67 70 73 72 66 40 48 68 54 51 61 76
72 97 93 95 97 92 70 80 86 71 55 47 49 53 62 52 48 52 59 66 56 59 53 29 26 28 30 31 34 40 43 41 45 48 56 59 62 60 65 63 44 50 66 96
38 94 94 91 96 96 96 86 84 67 65 52 46 42 57 60 51 50 46 40 42 40 42 43 36 25 24 20 22 33 39 39 28 52 60 75 83 95 75 97 94 90 93 92